Location: Alfortville
(48.8058°N, 2.4204°E)
Time: 03:48:09
(UTC+00:00)

USA 229 DEB - Pass Details

Date: 30 May 2022
Orbit: 934 x 1278 km, 63.4° (Epoch: 24 May)

Event Time Altitude Azimuth Distance (km) Brightness Sun altitude
Rises 23:07:02 0° 317° (NW) 3,951 7.6 -18.7°
Reaches altitude 10° 23:09:38 10° 317° (NW) 3,037 6.9 -18.8°
Maximum altitude 23:16:58 80° 232° (SW) 1,228 3.9 -19.0°
Enters shadow 23:21:51 26° 149° (SSE) 2,248 4.9 -19.1°
